Location: *
(37.5724°S, 58.0067°E)
Time: 11:31:45
(UTC+00:00)

Lacrosse 5 - Pass Details

Date: 26 January 2021
Orbit: 715 x 724 km, 57.0° (Epoch: 22 February)

Event Time Altitude Azimuth Distance (km) Brightness Sun altitude
Rises 16:10:10 0° 9° (N) 3,116 4.8 -8.7°
Reaches altitude 10° 16:13:42 10° 34° (NE) 2,209 3.8 -9.3°
Maximum altitude 16:16:11 14° 63° (ENE) 1,973 3.5 -9.7°
Drops below altitude 10° 16:18:41 10° 93° (E) 2,226 3.9 -10.2°
Sets 16:22:15 0° 118° (ESE) 3,159 4.9 -10.7°
